Wind_Speed
21 22 22 23 22 21 20 19 18 17 16 16 15 13 12 10 12 14 11 12 15 12 10 12 13 13 14 14 13 13 13 13 13 12 13 13 13 14 14 14 15 15 15 16 16 16 15 16 18 17 17 19 19 19 17 17 19 21 21 23 24 19 19 27 33 34 36 36 32 28 27 30 33 31 31 29 23 22 20 13 17 22 20 19 10 9 27
24 23 23 22 21 19 18 17 16 15 15 15 13 10 9 9 12 14 12 12 13 12 11 12 11 12 14 14 13 13 13 13 13 12 12 12 12 13 14 15 15 15 15 16 17 17 15 16 17 17 17 18 18 17 15 16 19 21 21 23 23 19 18 22 26 27 31 35 34 34 36 35 34 32 32 32 30 28 23 17 17 16 18 21 11 11 34
24 22 21 20 19 18 17 16 16 15 14 14 11 8 7 8 10 12 13 12 10 10 12 12 10 12 12 12 12 12 12 12 11 11 12 12 12 12 14 14 15 16 16 15 17 17 16 17 16 16 17 17 17 16 14 16 20 21 22 23 23 22 19 17 17 12 11 17 21 28 36 36 33 34 34 33 32 28 24 21 17 14 24 34 23 23 43
22 21 19 19 18 17 17 17 15 14 13 12 10 9 8 7 9 11 13 12 8 9 12 12 10 11 10 10 11 11 10 11 11 11 12 11 12 13 14 14 15 16 16 16 17 17 17 17 17 17 17 17 17 15 13 17 21 21 23 24 25 25 21 18 19 18 16 21 23 24 28 29 32 35 35 33 28 24 24 23 19 20 27 36 35 36 47
22 21 20 19 18 17 17 17 16 15 13 11 10 9 8 8 9 9 9 10 10 10 12 12 11 9 8 9 11 10 10 10 10 11 12 11 12 12 14 15 15 17 18 17 17 18 17 18 19 18 17 17 17 14 13 16 21 22 23 25 26 27 25 23 26 28 28 26 24 24 23 26 32 36 34 30 25 24 27 25 25 26 21 29 43 48 49
22 22 21 20 19 18 17 17 16 15 14 13 11 9 8 8 9 9 8 9 9 10 11 11 11 10 8 9 10 10 9 10 10 10 10 11 12 12 13 15 16 18 19 19 19 19 19 19 19 17 16 16 15 14 13 15 19 22 23 25 27 27 27 30 33 36 34 26 23 26 27 29 35 35 31 27 24 27 31 29 29 30 25 32 48 53 53
22 22 21 21 20 19 17 16 16 15 14 14 12 10 9 9 10 11 10 9 9 9 10 10 10 9 9 9 10 9 9 9 9 9 10 11 12 12 13 15 17 18 19 20 21 22 22 22 20 18 16 15 14 13 13 15 19 22 23 26 28 27 30 34 36 41 39 29 26 31 32 34 36 30 23 24 27 30 31 31 33 36 38 44 51 56 61
23 22 21 21 20 19 17 16 15 15 15 15 13 11 11 10 10 10 9 8 9 9 10 10 9 8 9 9 9 9 9 9 9 9 10 11 12 13 14 15 17 18 19 20 21 22 22 21 20 18 16 16 15 13 12 15 18 20 23 25 27 29 33 35 37 42 40 34 33 37 38 38 30 19 20 30 37 37 34 34 36 40 47 54 57 61 64
23 23 22 21 20 19 18 17 16 16 17 16 14 12 13 11 10 10 9 8 8 9 9 9 8 8 9 9 9 8 9 9 9 10 11 12 13 14 14 15 17 17 18 19 20 21 21 19 18 16 15 15 14 12 13 16 18 20 23 24 27 30 33 36 38 40 40 40 41 43 43 33 19 17 30 39 39 38 37 37 39 45 52 58 62 61 58
24 24 23 22 21 20 20 19 19 18 18 17 16 15 15 13 12 12 10 7 8 9 9 8 8 8 9 8 9 8 9 10 10 11 12 12 13 14 15 15 16 17 18 19 20 20 19 17 15 13 13 14 11 10 13 17 20 22 23 24 28 31 34 38 36 34 37 41 44 48 40 20 14 28 39 36 32 35 40 44 47 49 52 56 59 56 55
25 25 24 23 22 22 21 21 20 19 19 19 18 17 16 15 14 14 12 9 8 8 8 8 7 8 8 8 8 8 8 9 11 11 12 12 13 14 15 15 16 18 18 19 20 20 18 16 13 11 12 13 10 8 12 17 20 22 23 26 29 31 34 36 31 29 32 36 46 50 31 11 21 38 35 27 27 36 47 52 52 55 58 56 51 51 58
25 25 25 24 23 23 22 21 21 19 19 20 19 17 17 17 16 15 13 11 10 8 7 7 7 8 8 8 8 8 9 10 11 12 12 13 14 15 15 15 16 18 19 19 20 19 16 14 12 11 11 13 10 8 11 16 20 22 24 26 30 34 36 35 31 29 30 35 40 33 17 17 33 36 26 23 30 38 51 59 60 62 60 49 44 54 66
24 23 24 24 24 23 22 21 21 20 20 21 19 18 18 18 17 16 14 12 12 10 7 7 7 7 8 9 9 9 10 11 12 12 13 13 14 15 15 16 17 18 19 20 20 18 15 14 12 10 11 13 11 7 10 15 20 22 24 27 31 34 35 34 30 27 29 35 30 16 18 30 29 19 20 29 38 45 54 64 70 63 49 41 49 64 71
22 22 22 23 23 23 22 21 21 21 21 21 19 18 19 18 17 17 15 13 13 11 9 8 8 8 8 9 10 10 11 12 13 13 14 14 14 15 15 16 17 19 20 20 19 18 16 15 14 11 11 15 15 9 9 16 22 23 25 28 31 33 34 32 27 24 27 30 25 24 30 28 15 14 26 34 42 51 55 62 68 56 41 46 61 70 71
20 20 21 22 22 23 22 21 21 21 21 20 19 19 20 19 17 17 16 15 13 12 10 9 9 9 9 10 11 11 12 13 13 14 14 14 14 15 16 16 17 19 20 20 19 17 16 16 16 14 13 17 18 13 13 19 23 23 25 29 31 34 33 28 24 27 30 28 23 22 21 15 12 22 31 35 45 56 56 56 57 50 48 59 68 69 71
17 18 19 20 21 22 22 22 21 21 21 21 20 20 20 19 18 17 17 16 13 12 11 9 9 9 10 11 12 12 13 13 14 14 14 14 14 15 16 16 18 20 20 19 18 17 16 16 16 15 14 16 17 16 18 23 25 25 27 30 33 35 32 28 28 33 35 30 22 13 9 15 23 28 36 45 54 60 54 43 44 54 62 65 67 68 70
12 13 15 16 18 20 21 21 22 22 22 21 22 21 20 20 19 18 18 16 15 14 12 10 9 9 10 11 12 13 13 13 13 13 13 13 14 15 16 17 18 19 19 18 17 16 16 15 14 13 13 15 17 17 21 24 26 29 31 32 36 36 33 33 35 37 35 31 25 19 17 22 28 32 43 55 60 59 44 28 38 62 70 65 67 69 67
9 9 10 12 14 16 18 19 21 22 22 22 22 21 20 20 20 19 18 17 16 15 13 11 9 10 10 11 12 13 13 13 13 13 12 13 14 15 17 17 17 19 18 17 16 15 15 14 13 12 13 15 17 18 21 23 25 27 30 34 37 37 34 34 37 39 37 31 28 31 29 25 30 42 54 58 58 54 40 32 47 65 66 64 67 66 63
10 9 9 10 11 13 14 16 18 20 21 20 21 22 21 21 21 20 19 18 17 17 15 12 11 11 11 12 12 13 12 12 12 12 12 13 14 16 17 17 18 19 17 16 16 15 14 13 12 13 14 14 17 19 20 23 24 23 27 33 35 34 34 35 36 37 35 31 32 35 32 30 41 55 59 56 53 49 45 49 58 61 61 64 66 63 62
10 11 11 11 11 10 11 13 15 16 18 19 20 21 21 21 21 20 19 18 19 19 17 14 12 11 12 12 12 12 12 12 12 12 13 14 15 17 18 17 18 18 16 16 16 14 13 12 12 13 13 14 17 19 20 23 22 21 26 29 27 28 31 32 33 34 34 33 29 24 27 39 51 55 55 53 49 46 49 56 59 58 60 62 61 61 62
8 10 12 12 12 10 10 11 13 14 16 17 19 20 20 21 21 20 19 19 20 19 18 15 13 12 12 11 12 12 12 12 13 13 14 16 17 18 19 19 19 18 16 16 15 14 12 11 12 13 13 13 17 19 20 21 19 20 25 26 23 25 28 29 32 33 30 29 26 24 34 47 51 49 51 51 48 47 52 57 60 62 60 58 59 61 61
5 8 11 13 13 12 11 11 12 14 15 17 18 19 19 20 20 20 20 20 20 19 18 17 14 14 13 12 12 13 13 12 13 14 15 17 18 19 19 19 19 17 16 15 14 13 12 10 12 13 13 13 17 21 21 21 19 20 25 26 24 27 28 28 34 37 34 35 36 37 41 47 49 50 52 52 51 52 55 57 60 61 58 56 58 60 61
3 6 9 12 13 13 12 12 13 14 15 16 17 17 18 19 20 21 21 21 19 19 19 17 15 15 13 12 13 13 13 13 14 15 16 17 19 19 19 19 17 16 15 14 14 12 10 10 12 14 13 14 19 22 22 21 21 22 25 26 25 28 30 33 38 43 45 45 44 43 45 51 54 55 54 54 55 56 56 58 59 59 57 57 58 59 62
3 5 8 10 13 13 13 13 14 14 15 15 16 16 18 19 21 21 21 20 19 19 18 17 16 15 13 12 14 14 13 14 15 16 17 19 19 19 19 18 17 15 14 14 13 11 10 10 13 14 13 15 20 22 22 22 22 23 26 27 29 31 35 39 42 43 47 50 51 51 53 56 57 56 55 56 57 57 57 58 58 58 58 58 59 60 61
4 7 8 10 11 12 13 13 14 14 15 15 16 17 18 19 20 20 20 20 20 19 18 16 15 15 14 13 14 15 14 15 16 17 18 19 20 19 19 18 17 15 14 14 13 11 9 11 14 13 13 16 19 21 23 23 23 24 26 28 32 35 38 41 43 43 46 50 54 57 58 57 57 57 58 58 59 59 60 59 58 58 58 58 59 61 61
6 8 9 10 11 12 12 13 14 15 16 17 17 18 18 19 19 19 20 21 20 19 18 16 16 16 14 13 15 16 16 16 17 18 19 20 20 19 19 18 17 16 15 14 13 11 10 13 15 14 14 17 20 22 24 24 24 25 26 28 32 36 39 41 44 47 49 51 54 59 64 65 62 59 58 59 59 60 60 59 58 58 58 59 60 61 62
8 9 10 10 11 11 12 13 14 15 17 18 18 18 18 18 19 19 20 21 19 19 18 17 16 17 15 14 16 17 16 17 18 19 20 20 20 20 19 17 16 15 14 13 12 11 11 14 16 15 15 18 21 23 25 26 26 26 26 30 35 40 42 44 47 50 52 52 51 54 59 63 62 59 58 58 57 58 60 60 59 59 59 60 62 62 62
9 10 10 11 11 12 13 14 15 16 18 18 18 18 18 18 18 18 19 19 18 18 18 17 17 17 15 15 17 18 17 17 19 19 20 20 20 20 19 17 16 15 14 13 12 11 12 15 17 16 16 19 22 25 26 28 27 26 28 34 38 40 41 43 45 48 49 49 48 48 51 56 58 57 55 55 55 57 58 59 58 59 59 60 62 64 64
10 11 11 11 12 12 14 15 16 17 18 18 18 18 18 17 17 17 18 18 18 19 19 17 17 17 16 15 18 19 18 18 20 20 20 20 20 20 19 17 15 15 14 13 12 11 12 15 18 18 18 20 23 25 27 28 27 27 30 36 38 38 38 39 41 45 48 48 49 49 49 52 55 55 54 54 54 56 57 58 58 59 60 60 62 63 64
11 11 11 12 12 14 15 16 17 17 18 18 18 17 17 17 17 17 17 18 18 20 19 16 16 18 17 16 19 19 18 20 21 20 20 20 20 20 18 16 15 15 13 13 13 12 13 16 19 19 20 21 23 25 27 27 26 27 33 38 40 39 41 41 41 44 47 49 50 50 50 51 53 54 55 54 53 54 57 58 59 60 60 61 62 63 63
11 11 11 12 13 14 15 16 16 16 16 17 17 17 17 17 17 17 18 18 18 19 18 17 17 18 17 17 19 19 19 21 22 21 20 21 20 19 18 17 16 15 14 13 13 13 14 16 20 20 20 21 24 26 27 27 29 32 37 41 41 42 43 44 44 44 46 48 51 53 53 52 52 55 56 55 54 55 57 58 59 60 61 61 61 62 63
10 11 11 12 12 13 14 15 15 15 15 16 17 17 17 17 16 17 17 17 18 19 18 17 17 17 17 18 20 19 20 22 22 21 21 21 20 19 19 17 16 16 15 14 14 13 14 16 20 21 21 22 24 26 26 27 31 37 41 42 43 44 45 46 47 47 48 48 50 53 54 54 53 53 55 55 55 56 57 59 60 61 62 62 62 62 62
10 10 11 12 12 13 14 14 15 15 16 17 17 17 17 17 16 17 17 17 18 18 18 17 17 17 18 19 19 19 20 21 21 21 21 20 19 19 19 17 17 17 16 15 14 14 14 16 20 21 21 22 25 26 26 29 34 39 42 43 44 46 47 47 47 49 49 49 49 50 53 55 54 53 53 54 55 56 58 60 62 63 64 64 64 63 63
10 11 11 12 13 13 14 15 15 16 17 17 18 18 18 17 17 17 17 17 18 18 17 17 17 18 19 19 19 19 20 21 20 20 20 19 19 19 19 17 17 17 16 16 16 15 14 16 20 21 21 23 25 26 27 31 37 41 43 44 45 47 48 48 49 50 51 50 50 51 52 55 56 56 56 56 57 57 59 60 62 64 66 66 66 66 65
11 11 12 12 13 14 14 15 16 17 18 19 19 18 18 17 17 17 17 18 18 17 17 17 17 18 19 19 18 19 20 20 20 20 19 19 19 19 18 18 18 18 16 16 17 15 15 16 20 22 21 22 25 27 30 34 39 42 43 45 46 48 49 51 52 52 51 51 53 54 55 57 58 59 59 60 59 59 59 60 61 64 66 67 67 66 66
11 12 12 13 14 14 15 16 17 18 18 19 19 18 17 17 17 17 17 18 18 17 16 17 19 19 20 19 19 19 20 21 20 19 18 18 18 19 18 18 19 18 17 17 17 15 15 17 21 22 21 23 26 28 31 36 40 43 44 45 46 47 48 50 51 53 53 52 54 56 59 61 61 62 63 62 60 59 60 61 62 64 67 67 67 66 66
12 12 12 13 14 15 15 16 17 18 18 18 18 17 16 16 16 17 17 18 18 17 17 18 20 21 21 21 20 20 21 21 20 19 18 18 18 18 17 18 19 18 17 18 17 15 15 18 21 21 22 24 26 29 32 36 40 43 44 44 45 46 47 48 50 52 54 55 56 59 61 62 62 62 63 62 61 60 61 62 64 65 66 67 66 65 65
12 13 13 13 14 15 16 17 18 18 18 17 17 16 15 16 17 17 17 18 18 17 18 20 21 22 22 22 22 22 22 22 20 19 18 18 18 17 16 17 19 17 17 17 16 15 16 19 21 21 23 24 27 30 34 37 40 42 42 43 45 46 47 48 49 51 53 55 56 57 58 58 59 59 60 61 60 60 61 62 63 63 64 65 65 64 64
13 13 13 14 15 15 16 17 18 18 17 17 16 15 15 16 17 17 18 18 18 18 19 21 22 23 23 23 23 24 24 23 21 19 19 19 18 16 17 18 18 17 17 17 16 15 18 20 21 22 23 26 28 32 36 38 40 41 42 43 45 46 47 48 48 49 50 51 51 52 52 53 54 56 58 59 60 60 61 62 62 62 62 63 64 64 64
13 14 14 14 15 16 16 17 17 17 16 15 14 14 15 16 17 18 19 19 19 20 22 23 24 24 24 24 24 25 25 24 22 21 20 19 18 17 18 18 18 17 17 16 15 16 18 20 21 22 24 27 31 34 37 39 40 40 42 44 45 46 47 48 48 48 49 49 49 50 50 51 52 54 56 57 59 60 61 62 62 62 62 63 63 63 63
13 14 15 15 15 16 16 16 16 16 15 14 13 14 15 16 17 18 19 20 20 21 23 24 25 25 26 26 26 26 25 24 23 22 21 19 18 18 18 18 17 16 14 14 16 18 19 20 21 23 26 30 34 37 38 40 40 41 42 44 45 47 48 49 48 48 49 50 51 52 52 52 53 53 55 56 58 60 61 62 63 62 62 62 63 63 62
14 15 15 15 15 15 15 15 16 15 14 13 13 15 16 16 18 19 20 20 21 23 24 25 26 26 26 27 28 27 26 25 23 22 21 21 20 19 19 18 16 14 14 16 19 19 18 19 21 24 28 32 36 38 39 40 41 42 43 45 46 48 50 51 50 50 50 52 53 53 53 54 54 54 54 56 58 59 60 61 62 62 61 61 62 62 62
14 15 15 15 15 15 15 15 15 14 12 12 14 15 16 17 18 19 20 20 22 23 24 26 26 27 27 28 28 28 26 25 24 23 22 21 20 19 19 18 16 16 18 20 20 18 17 19 23 27 31 35 37 38 39 41 42 43 44 45 47 49 50 51 51 51 52 53 54 55 55 55 55 54 54 55 57 58 59 60 61 62 61 61 61 62 62
15 15 16 15 15 15 14 13 13 12 12 13 15 16 16 17 19 19 20 21 22 23 25 26 26 27 28 28 28 27 26 25 24 23 22 20 20 19 18 18 18 20 22 21 19 17 18 21 25 30 34 36 37 38 40 41 42 44 45 46 47 49 50 51 52 53 54 55 56 57 57 57 57 56 55 54 55 57 60 62 63 63 63 61 61 61 61
15 16 15 15 15 15 13 12 12 12 13 14 16 17 17 18 19 20 21 22 23 24 25 26 26 27 28 28 27 27 26 25 24 22 21 21 21 19 18 19 22 22 21 19 18 18 20 24 29 34 36 37 38 39 40 41 43 44 46 47 48 50 51 52 53 54 55 57 58 59 59 59 58 58 57 55 55 58 62 65 67 67 65 62 61 61 61
16 16 16 15 14 13 12 11 12 13 14 15 16 17 18 19 19 20 21 22 23 25 26 26 27 27 28 27 27 26 25 24 23 22 21 21 21 20 21 22 22 19 17 17 18 20 23 29 33 36 37 38 39 40 40 41 43 44 46 48 49 50 52 53 53 54 56 57 58 59 59 59 59 59 58 56 57 59 63 67 70 69 65 61 61 61 61
16 16 16 15 13 12 12 13 14 15 15 16 17 17 18 19 20 21 22 23 24 25 27 27 28 28 28 28 27 25 24 24 23 22 20 20 22 22 22 20 18 17 18 19 21 24 28 33 36 37 38 40 40 40 41 42 43 44 46 48 49 51 52 53 53 54 56 57 58 59 60 60 60 60 59 58 59 62 66 70 70 67 63 60 59 60 60
17 17 16 14 13 13 13 14 15 16 16 17 18 18 19 20 20 21 22 23 25 26 27 28 28 29 28 28 27 25 24 23 22 22 21 22 22 21 20 19 19 19 20 22 25 29 33 35 36 37 39 40 40 40 41 42 43 45 47 48 50 51 52 53 53 54 55 57 58 59 60 60 60 59 59 60 61 65 68 71 70 65 61 59 58 59 60
17 16 16 15 14 14 15 15 16 16 17 18 19 19 20 21 21 22 23 24 25 27 28 28 29 29 29 28 27 25 23 22 22 23 23 22 21 20 21 22 23 23 24 27 31 33 35 36 37 38 39 40 40 40 41 42 43 45 47 48 50 51 52 52 53 53 55 56 58 58 59 59 58 58 59 61 63 66 70 71 70 65 61 59 60 61 62
17 16 16 15 15 15 15 16 16 17 18 19 20 20 21 21 21 22 24 25 26 27 28 29 29 29 29 29 28 25 23 23 24 25 24 22 21 22 24 25 25 26 29 32 34 34 35 37 39 39 40 40 40 40 41 42 43 45 47 48 49 51 51 52 52 53 54 56 57 58 58 58 57 57 59 61 64 67 70 72 70 66 61 59 60 62 63
18 18 17 16 16 16 16 17 17 18 19 20 21 21 22 21 22 23 24 25 26 27 28 29 30 30 30 29 28 27 26 26 26 26 24 23 23 24 26 27 29 30 32 33 33 33 35 38 39 40 41 41 41 41 42 43 44 45 47 48 49 50 51 51 52 53 54 55 57 58 58 57 57 57 58 61 64 67 71 73 72 68 63 60 60 62 64
19 18 18 18 18 18 18 18 18 19 20 21 22 22 22 22 22 23 25 25 26 27 28 29 29 29 29 29 29 28 27 27 27 27 27 26 26 27 29 31 32 33 34 33 33 33 36 38 39 40 41 41 41 42 43 43 44 45 47 48 50 50 51 51 51 52 54 55 57 58 58 57 57 57 59 61 64 68 71 73 73 70 66 64 62 62 63
Wind_Direction
88 88 87 86 85 83 83 81 80 80 79 77 76 75 78 79 80 83 85 82 82 83 80 75 74 77 80 79 79 77 72 66 61 55 50 46 40 38 36 30 29 26 21 21 20 18 19 20 17 11 6 6 4 4 8 9 9 8 8 4 2 5 0 351 346 344 348 352 352 353 352 344 337 330 324 320 320 323 320 307 306 305 300 306 310 277 297
86 85 84 81 80 78 77 76 74 74 73 72 71 64 62 70 78 82 77 75 82 81 68 65 71 76 77 77 74 70 66 62 57 51 46 43 40 36 33 29 26 21 18 19 17 16 17 15 12 9 4 2 2 4 8 10 8 8 7 4 4 7 3 357 352 346 346 349 349 346 344 340 332 325 321 318 318 320 321 324 325 312 304 317 321 278 298
84 83 80 78 76 73 70 69 67 64 64 65 64 56 46 55 74 81 76 72 76 77 68 60 61 69 77 77 70 64 63 61 55 50 47 44 38 33 31 27 23 19 17 15 14 15 14 11 8 6 2 0 1 3 7 9 6 5 3 2 3 3 4 5 1 348 331 330 331 332 332 330 326 323 319 316 317 321 329 338 335 316 313 315 304 286 303
81 78 76 73 71 68 65 62 59 59 60 59 57 53 43 47 67 78 81 73 59 61 68 62 54 60 67 70 68 63 59 58 54 49 47 42 35 32 29 23 19 17 14 12 12 11 10 8 5 4 2 359 360 1 3 5 4 2 359 358 359 358 358 358 350 339 325 318 320 328 327 320 321 323 317 314 317 324 337 346 336 323 316 308 304 307 312
76 72 69 65 63 62 62 60 56 54 54 54 54 49 41 47 62 71 78 74 60 59 68 63 52 50 52 59 67 65 56 52 49 46 44 38 31 29 25 18 15 13 11 10 9 7 6 4 2 3 2 358 358 358 358 2 1 357 356 357 355 353 352 348 341 338 337 333 331 334 328 319 322 322 316 313 314 322 337 344 340 335 317 300 314 323 318
75 71 67 63 60 57 57 58 57 52 48 49 49 39 32 50 65 64 63 67 63 61 66 64 55 45 42 52 65 63 53 49 46 43 38 31 25 21 18 14 10 9 8 7 4 3 2 1 1 2 0 357 359 357 356 0 357 353 355 354 352 351 349 345 339 338 342 345 341 338 332 326 326 321 313 311 313 322 334 339 339 337 321 310 320 324 318
74 70 67 64 60 57 55 56 57 53 45 44 44 34 35 53 64 60 53 57 63 61 61 64 59 45 40 51 60 56 47 44 40 36 30 22 18 14 11 10 8 6 6 4 2 1 359 358 358 359 359 358 359 0 3 1 353 351 352 351 351 350 347 345 340 338 344 350 345 339 335 329 327 321 313 315 317 324 334 339 339 336 327 322 323 321 318
71 68 66 64 60 56 53 50 53 54 47 40 37 35 39 49 57 57 46 46 61 64 59 61 60 47 40 48 55 50 40 34 26 22 21 15 12 8 6 6 5 4 4 3 2 1 358 354 352 354 358 357 355 2 6 358 350 349 350 349 350 349 346 346 341 337 344 351 343 338 337 333 327 320 319 324 323 324 334 341 340 336 330 326 324 321 319
69 66 64 62 58 55 51 46 45 50 50 42 34 37 44 44 49 54 40 33 57 64 58 59 57 45 41 44 47 41 32 24 15 11 12 8 6 4 2 2 2 0 1 1 360 359 357 353 349 351 356 354 352 355 356 353 348 348 349 348 348 348 346 347 344 337 341 347 342 338 339 334 328 329 330 328 324 322 330 339 339 336 331 327 324 322 320
68 65 61 59 56 53 50 46 43 46 50 48 39 40 47 43 44 49 37 29 56 62 54 52 46 39 39 37 35 30 22 17 11 8 7 2 0 0 358 358 358 357 357 358 359 357 355 354 351 351 354 351 346 342 344 347 347 347 349 347 347 350 348 349 348 335 335 344 341 337 341 341 336 336 330 323 321 320 322 329 332 332 329 326 323 320 318
68 64 61 57 55 52 50 48 45 45 49 51 44 40 46 44 41 44 38 29 47 59 52 44 35 32 30 25 23 19 12 8 5 4 3 357 355 356 356 356 356 356 356 356 357 356 355 356 353 352 355 351 344 333 330 340 346 346 346 345 347 350 349 351 349 334 332 342 340 338 348 0 332 329 323 316 325 326 322 324 329 329 327 326 321 316 318
69 65 61 57 54 52 50 48 47 45 48 52 47 40 43 43 39 39 36 30 37 47 46 34 26 23 18 12 9 5 1 359 357 358 358 355 353 354 355 355 355 356 355 354 355 357 357 357 354 353 358 357 352 334 323 334 343 345 345 345 347 349 349 351 351 339 333 341 344 346 351 334 326 322 314 314 323 324 322 320 323 327 328 326 320 319 323
69 65 61 57 54 52 50 49 47 45 46 49 46 39 39 40 37 34 31 27 30 34 31 18 11 8 5 1 355 350 352 352 351 354 354 352 353 354 353 353 354 354 353 352 355 357 357 358 358 357 359 2 2 341 323 335 343 345 345 344 345 349 350 351 351 346 340 342 347 341 318 324 330 319 312 323 327 329 329 322 321 328 331 325 322 324 327
70 66 62 58 55 53 51 50 47 45 44 45 44 40 38 38 35 31 27 24 25 27 22 9 359 353 349 350 347 343 346 349 349 351 352 351 352 353 353 353 352 352 352 352 354 356 356 359 3 3 359 2 4 356 337 342 345 344 344 343 346 349 349 351 353 351 346 340 333 324 323 332 344 322 323 334 333 332 331 321 320 328 331 326 327 328 328
70 66 62 58 55 53 51 49 47 44 43 43 43 40 37 36 33 30 27 25 22 19 16 7 357 348 342 342 342 341 345 349 350 350 350 350 351 352 353 351 349 350 350 350 354 357 358 2 8 11 5 0 1 356 345 346 345 343 343 344 347 348 349 354 354 347 348 344 333 331 331 330 332 324 323 326 324 326 326 318 317 327 332 330 330 330 329
67 63 60 57 55 52 50 48 46 44 42 41 41 40 36 33 33 30 27 26 22 18 15 8 358 349 341 340 341 344 347 349 351 351 350 350 350 351 352 349 348 349 349 350 355 358 0 6 12 13 6 359 358 350 344 346 345 343 344 346 347 347 348 352 350 349 352 350 336 325 310 308 318 321 320 321 322 325 326 318 317 329 334 332 332 331 331
65 57 53 52 52 51 48 45 44 43 40 39 40 39 35 32 32 30 28 27 24 21 18 10 358 348 342 341 344 347 349 348 349 351 350 350 350 349 349 348 346 347 347 350 355 356 359 7 12 11 5 359 356 350 345 346 344 343 345 346 345 346 349 350 350 350 351 348 334 318 309 312 314 317 322 325 326 329 331 324 322 330 333 332 331 331 332
64 49 39 38 41 44 43 42 40 39 37 36 37 38 34 31 31 29 28 28 25 22 19 12 1 352 346 346 345 345 346 346 348 349 349 348 347 346 346 346 345 345 347 351 354 355 358 5 8 7 4 358 355 351 346 345 344 343 344 343 344 347 350 348 348 347 348 347 334 320 318 320 322 323 326 328 330 335 337 326 323 327 329 329 331 331 333
58 45 30 24 26 30 33 34 33 33 33 30 31 35 33 30 29 27 26 26 25 23 21 14 5 357 351 348 345 342 343 344 346 346 344 343 343 343 344 343 343 345 348 351 353 355 358 3 4 3 1 357 353 351 347 344 344 344 343 343 345 348 347 343 344 346 345 340 330 322 321 328 329 328 330 333 335 334 329 321 321 324 326 329 332 332 334
50 40 30 22 18 15 19 23 22 24 25 20 22 29 29 26 26 25 23 24 25 23 21 17 10 2 354 349 345 343 344 345 344 343 342 341 342 342 343 343 343 346 349 350 352 354 356 359 1 358 356 352 349 349 347 345 345 345 345 345 344 344 344 341 342 343 339 334 331 324 319 325 329 328 330 334 332 326 321 321 323 326 328 331 332 333 335
40 33 27 22 15 8 6 9 9 11 13 10 14 23 25 22 24 23 20 24 25 22 20 19 15 6 359 354 350 347 346 344 342 341 341 341 342 342 342 343 344 346 348 348 349 351 352 353 356 353 349 346 346 348 348 347 347 344 345 346 343 342 345 342 337 337 331 321 320 319 318 323 328 327 326 329 330 327 326 326 327 329 332 333 333 334 337
29 22 20 18 15 10 3 359 359 359 1 2 9 17 18 17 20 19 19 23 25 21 20 22 18 10 4 359 355 350 346 343 340 340 340 339 339 340 340 341 343 344 345 344 344 345 345 346 348 347 344 343 345 348 350 351 348 344 345 348 345 341 342 337 330 330 325 316 319 326 326 326 330 331 332 334 335 333 332 331 330 333 335 335 335 336 338
12 9 12 13 12 10 5 359 355 353 352 356 3 8 9 11 14 16 18 22 22 18 20 22 18 11 6 1 357 351 344 341 338 337 338 336 336 338 338 339 341 341 339 338 338 337 337 338 341 342 342 343 347 351 353 352 348 345 346 346 341 337 336 333 330 330 330 329 333 335 331 330 335 339 341 340 338 336 335 335 335 336 336 337 338 339 339
350 354 2 6 8 8 5 359 354 349 348 351 356 1 3 6 10 13 17 20 19 16 18 20 16 12 7 2 357 351 343 340 336 334 334 334 334 336 336 336 338 338 335 334 333 330 329 333 338 341 343 345 348 352 354 352 348 346 344 340 339 339 337 334 332 331 331 335 340 339 333 334 340 344 343 342 340 339 338 337 337 337 337 337 337 339 340
339 343 351 358 1 2 1 357 352 350 349 350 354 358 2 4 7 10 13 16 16 14 15 17 15 12 8 1 356 351 343 338 334 331 332 332 332 334 335 335 336 334 331 330 328 323 321 330 337 341 343 345 348 352 353 351 347 344 342 340 340 340 336 333 332 332 332 337 340 339 336 338 344 345 344 343 342 339 338 338 338 337 336 336 336 338 340
333 338 344 350 353 355 354 351 350 351 352 354 357 359 360 2 4 6 9 13 13 11 12 14 13 10 7 0 355 350 342 336 332 329 330 332 331 333 334 333 333 331 327 326 324 318 317 328 337 339 341 345 348 350 350 348 346 344 343 340 338 336 335 335 334 334 337 341 341 339 338 342 346 346 344 344 342 339 338 339 339 338 337 337 337 338 340
332 337 340 342 345 347 345 344 347 352 355 358 360 357 356 358 0 2 7 11 10 7 9 12 9 6 3 358 353 348 340 335 332 330 331 332 331 332 333 332 330 327 323 321 320 313 314 328 336 337 339 343 346 348 348 347 346 344 341 340 339 338 339 341 338 337 339 342 341 339 337 339 342 344 343 344 343 340 339 340 341 340 340 339 338 339 340
330 335 337 338 338 338 337 340 346 352 356 359 358 354 353 356 357 360 6 8 5 5 8 9 5 2 359 354 350 346 340 335 332 330 331 331 331 332 332 329 326 324 320 318 316 308 312 327 335 335 337 341 344 345 346 344 344 344 341 340 341 340 340 341 339 337 337 339 339 338 336 336 339 342 343 344 344 342 341 343 342 342 342 341 340 340 341
329 332 333 334 334 333 335 339 346 352 356 357 354 351 352 353 354 358 3 3 1 4 7 6 1 358 355 350 347 344 339 336 333 331 331 331 330 330 329 325 323 322 318 315 311 303 308 325 334 334 335 339 342 342 342 343 344 344 340 338 339 339 340 341 339 336 336 338 338 338 338 338 339 341 342 344 345 343 342 343 344 344 344 343 342 341 341
329 331 330 331 331 331 334 341 348 353 354 351 349 349 351 353 354 355 357 358 0 3 5 3 359 356 352 347 344 342 338 336 334 332 331 331 330 329 327 323 321 320 316 313 308 300 304 322 333 334 333 336 339 339 339 341 343 341 337 337 340 341 341 342 340 338 337 339 338 339 340 340 340 340 341 344 345 342 341 343 344 344 344 345 344 343 342
328 328 328 329 329 330 336 343 348 350 348 346 348 350 352 353 352 352 355 358 360 1 2 0 357 354 350 344 341 340 338 336 335 333 331 331 330 328 325 321 319 317 313 310 307 301 304 319 331 333 331 333 336 336 337 338 340 339 339 340 342 342 342 342 341 340 339 339 339 340 341 341 341 340 342 344 345 343 342 343 342 342 343 344 344 343 343
326 326 325 325 325 330 337 343 344 344 344 345 348 350 350 351 351 352 356 357 356 358 360 358 354 351 347 343 341 340 338 336 334 332 331 329 327 325 321 317 316 315 311 308 306 301 301 315 328 331 330 331 333 333 335 336 337 338 340 342 342 341 341 341 341 340 341 342 341 340 340 342 343 343 342 344 345 345 343 343 342 342 342 342 342 342 342
322 321 321 322 325 330 335 337 339 341 343 344 347 349 350 350 351 353 354 354 354 356 357 354 350 348 345 342 341 339 337 335 333 330 328 325 323 321 317 312 312 311 306 304 305 300 299 314 327 329 328 329 331 332 333 334 336 338 341 342 341 341 341 340 340 341 343 345 343 340 340 341 343 343 342 344 346 345 345 345 344 343 343 343 342 341 341
318 318 319 323 327 331 334 336 338 340 341 343 347 350 350 349 350 351 352 352 352 353 352 350 347 345 343 342 341 338 337 335 332 328 325 322 320 318 314 309 309 308 303 302 304 299 298 313 326 328 327 328 331 331 331 332 336 339 341 341 341 340 340 340 341 342 344 344 343 341 341 341 343 343 343 345 346 346 346 346 346 345 344 343 343 342 341
318 320 321 325 328 330 332 335 336 338 341 345 347 348 348 347 348 350 351 351 350 349 349 348 344 342 342 342 340 337 336 335 332 328 324 321 318 316 312 308 308 307 303 303 304 298 296 311 325 328 327 327 330 331 331 332 336 340 340 341 341 340 340 341 341 341 342 343 343 342 343 343 345 345 345 346 347 346 346 347 347 345 344 343 343 343 342
321 323 324 326 329 330 333 335 336 338 342 344 344 345 346 347 348 348 348 348 348 348 347 345 342 342 343 341 339 339 338 336 333 328 324 320 319 316 311 308 309 308 304 304 305 298 298 311 323 325 325 327 329 330 331 333 337 339 340 339 339 339 339 340 339 339 341 343 343 343 344 345 346 346 345 346 347 347 346 347 346 345 343 342 342 343 343
322 323 325 327 330 331 333 335 336 338 340 341 342 344 345 344 346 347 347 347 347 347 345 343 342 343 342 341 340 340 338 336 334 330 325 321 320 316 311 309 310 307 303 304 305 299 299 311 320 323 325 327 328 330 332 334 337 338 338 337 337 338 339 339 338 338 340 343 344 345 345 345 346 347 346 346 347 348 347 347 346 345 343 342 342 343 343
320 322 324 328 330 331 333 334 335 336 338 339 341 342 343 344 346 347 346 345 345 344 343 343 343 343 342 341 340 340 339 338 336 332 326 323 321 317 312 311 311 307 304 305 305 300 302 312 319 322 324 327 328 330 334 336 336 336 336 335 336 338 339 339 339 339 342 344 345 345 345 345 346 347 347 347 348 349 348 346 345 344 343 342 342 343 343
320 322 325 327 328 329 331 332 333 334 336 338 340 341 343 344 345 345 345 344 344 343 343 343 343 342 342 341 341 340 339 338 335 332 328 325 321 318 315 313 311 307 305 305 304 303 308 314 318 320 324 327 329 331 334 335 335 335 335 335 337 338 338 339 340 341 343 344 345 345 345 346 347 348 348 347 348 349 349 346 345 345 344 343 343 344 343
321 322 324 325 326 328 329 330 330 332 335 338 340 341 342 343 344 344 345 345 344 343 343 343 343 342 342 342 341 340 338 337 335 332 329 326 322 318 316 314 310 306 304 302 303 307 311 314 316 320 325 328 330 331 333 334 335 335 336 336 337 338 338 339 341 342 343 344 345 345 346 347 348 348 348 348 349 350 349 347 346 345 345 344 345 345 345
322 321 321 323 324 325 326 327 330 333 336 338 339 341 342 344 344 344 345 345 345 343 342 342 342 342 342 341 340 339 338 336 334 332 329 327 323 319 317 315 310 305 302 304 308 311 313 313 316 322 326 328 329 331 332 332 334 336 337 338 338 338 339 340 342 343 343 344 345 346 346 347 348 349 350 350 350 350 349 347 346 346 345 345 346 347 346
322 320 320 321 322 323 325 327 330 333 335 336 338 342 344 344 345 346 346 345 343 342 341 341 342 342 342 340 340 339 337 335 333 332 331 328 323 320 318 316 309 302 303 308 310 310 311 313 318 324 327 328 329 331 331 332 334 336 338 338 339 339 339 340 341 342 342 344 345 346 347 348 349 351 352 352 351 351 350 349 347 346 345 346 347 348 347
318 318 319 320 320 322 325 327 329 333 335 336 339 343 344 344 344 346 346 344 342 340 340 340 341 341 341 340 338 337 336 334 332 331 330 327 323 320 318 315 308 304 307 309 309 308 311 316 320 325 327 328 329 330 331 332 334 337 338 339 339 339 340 340 340 341 342 344 346 347 347 348 349 351 353 354 353 352 353 352 350 347 346 346 347 349 349
315 317 319 320 321 323 325 327 329 332 335 336 338 340 342 342 343 344 344 342 341 339 339 340 341 341 340 339 337 336 335 333 331 329 328 326 323 319 315 312 309 309 309 309 307 308 313 318 323 326 327 327 328 330 331 332 334 336 338 339 339 339 339 340 340 340 342 344 346 347 347 347 348 350 353 355 354 353 353 353 351 348 347 346 346 348 350
316 318 319 320 322 325 326 328 329 332 334 335 336 338 339 339 340 342 342 340 339 339 340 341 342 340 339 338 336 335 334 332 330 328 326 324 320 317 314 312 312 311 308 306 306 309 315 320 324 326 326 326 328 330 332 333 334 336 337 338 338 339 340 340 340 340 341 344 346 346 346 347 348 349 351 354 354 353 351 351 350 348 346 345 346 348 350
316 318 319 320 322 325 327 328 329 330 332 333 333 334 335 336 338 340 340 338 338 339 340 341 341 340 339 337 336 335 333 330 328 327 325 322 319 317 315 313 312 311 307 306 308 312 317 321 324 325 325 326 328 330 331 332 334 335 336 337 338 339 340 340 340 340 342 344 345 346 346 347 348 349 350 352 353 352 351 351 350 348 346 345 346 348 350
315 317 318 319 320 323 325 326 325 326 328 329 330 331 333 335 337 338 338 337 338 338 339 340 340 340 338 337 336 335 333 329 326 326 326 323 319 318 316 313 311 311 309 309 311 315 317 320 323 324 325 326 328 330 331 332 334 335 335 337 338 339 339 339 340 341 342 343 344 345 346 346 347 348 349 350 351 351 352 352 351 349 347 346 347 349 350
313 315 316 317 317 319 321 321 322 323 325 327 328 329 331 334 336 337 337 337 337 337 337 338 339 339 338 337 336 335 333 329 325 326 327 324 320 318 315 310 310 312 312 312 314 316 317 319 322 323 324 325 328 330 331 332 333 334 335 336 338 339 339 339 340 341 342 343 344 344 345 346 347 347 348 348 349 351 353 353 353 351 350 348 348 350 351
311 312 313 313 314 315 317 318 320 321 323 325 326 327 330 332 334 336 336 335 335 335 336 337 338 339 338 337 335 334 333 329 325 324 325 323 318 313 309 308 310 314 315 315 315 316 317 319 321 323 324 326 327 329 330 331 332 333 335 336 337 338 338 339 340 341 342 343 343 344 345 346 346 347 347 347 349 351 354 355 355 354 352 351 351 351 353
310 310 310 309 309 311 313 315 317 319 322 323 324 326 328 331 333 334 334 333 333 334 335 336 338 339 338 337 335 334 332 328 323 321 321 321 317 311 308 309 312 314 315 315 315 315 316 319 321 323 324 326 327 328 330 331 332 334 335 336 337 337 338 338 339 341 342 343 343 343 344 345 345 346 347 347 348 351 354 357 357 356 354 353 352 353 355
310 308 307 306 306 306 309 312 315 318 320 321 321 323 326 329 331 332 332 331 332 333 334 336 338 338 338 336 334 331 328 324 322 321 320 320 316 312 310 312 313 314 313 314 315 315 317 319 321 323 324 325 326 327 329 332 333 334 334 335 336 337 337 338 339 340 342 342 343 343 343 344 344 345 346 346 347 350 354 357 358 357 355 353 352 353 355
308 307 306 304 304 305 307 311 314 316 317 317 319 321 324 326 329 330 330 329 330 332 333 334 336 336 335 333 331 329 324 321 319 320 321 320 316 313 313 313 313 313 313 314 314 316 318 320 321 322 323 325 326 327 329 332 334 334 334 334 336 336 337 338 339 340 341 342 342 342 342 342 343 344 344 345 347 350 354 357 358 358 356 355 353 352 353
Height
3165 3166 3166 3167 3167 3167 3167 3168 3168 3167 3167 3167 3167 3167 3167 3167 3166 3165 3165 3164 3163 3163 3164 3164 3163 3163 3163 3163 3163 3163 3163 3163 3163 3163 3162 3162 3161 3160 3159 3158 3157 3156 3155 3154 3152 3151 3150 3149 3148 3147 3145 3144 3143 3141 3139 3138 3137 3135 3134 3132 3130 3128 3126 3123 3118 3114 3112 3112 3110 3109 3108 3105 3101 3099 3096 3093 3092 3090 3089 3087 3081 3077 3071 3068 3069 3056 3041
3168 3169 3169 3170 3170 3170 3170 3170 3170 3170 3169 3169 3169 3169 3169 3168 3167 3166 3167 3166 3165 3165 3166 3166 3165 3165 3164 3164 3165 3165 3165 3165 3165 3164 3163 3163 3162 3161 3160 3159 3158 3157 3155 3154 3153 3152 3150 3149 3148 3147 3146 3144 3143 3141 3140 3138 3137 3136 3134 3133 3131 3129 3127 3125 3120 3114 3109 3106 3105 3104 3103 3102 3100 3097 3093 3090 3089 3086 3084 3083 3081 3076 3070 3068 3067 3053 3039
3172 3172 3172 3172 3172 3172 3172 3172 3172 3171 3171 3170 3171 3171 3170 3169 3168 3168 3168 3168 3167 3167 3167 3167 3167 3166 3166 3166 3166 3166 3166 3166 3165 3165 3164 3163 3163 3162 3161 3160 3159 3158 3156 3155 3154 3152 3151 3150 3149 3147 3146 3144 3143 3141 3140 3139 3137 3136 3134 3133 3131 3129 3128 3127 3125 3123 3119 3113 3109 3106 3103 3101 3098 3096 3092 3088 3086 3083 3081 3081 3079 3075 3068 3064 3062 3050 3038
3175 3175 3175 3175 3175 3174 3174 3174 3173 3173 3172 3172 3172 3172 3171 3170 3170 3169 3169 3169 3169 3168 3168 3168 3168 3168 3168 3167 3167 3167 3167 3166 3166 3165 3165 3164 3163 3162 3161 3160 3159 3158 3157 3156 3155 3153 3152 3151 3149 3147 3146 3144 3143 3141 3140 3139 3137 3135 3134 3132 3130 3128 3127 3126 3125 3126 3124 3119 3115 3111 3107 3102 3098 3094 3090 3086 3084 3081 3080 3079 3077 3074 3067 3059 3055 3050 3038
3177 3177 3177 3177 3177 3176 3176 3176 3175 3175 3174 3174 3173 3173 3172 3172 3171 3171 3170 3170 3170 3169 3169 3170 3169 3169 3169 3168 3168 3168 3168 3167 3166 3166 3165 3164 3164 3163 3162 3161 3160 3159 3157 3156 3155 3154 3152 3151 3149 3147 3146 3144 3143 3141 3140 3139 3137 3135 3133 3131 3129 3127 3125 3124 3123 3121 3120 3117 3113 3110 3106 3101 3097 3092 3088 3085 3083 3080 3078 3077 3075 3073 3067 3054 3048 3048 3039
3180 3179 3179 3179 3179 3178 3178 3177 3177 3176 3176 3175 3174 3174 3173 3173 3172 3172 3172 3171 3171 3171 3170 3170 3170 3170 3170 3169 3169 3169 3168 3168 3167 3166 3166 3165 3164 3163 3162 3161 3160 3159 3157 3156 3155 3153 3152 3150 3149 3148 3146 3145 3143 3142 3140 3139 3137 3135 3133 3131 3129 3127 3124 3122 3118 3116 3115 3113 3110 3107 3103 3099 3094 3090 3087 3084 3081 3078 3076 3075 3072 3070 3066 3054 3045 3043 3037
3182 3182 3181 3181 3181 3180 3180 3179 3178 3178 3177 3176 3175 3175 3175 3174 3173 3173 3173 3173 3172 3172 3172 3171 3171 3171 3170 3170 3170 3169 3169 3168 3168 3167 3167 3166 3165 3164 3163 3162 3160 3159 3158 3156 3154 3152 3150 3149 3148 3147 3146 3145 3143 3141 3140 3139 3137 3135 3133 3131 3128 3126 3123 3120 3115 3111 3110 3109 3106 3103 3100 3096 3092 3088 3085 3083 3081 3077 3075 3072 3070 3067 3062 3054 3046 3040 3034
3184 3184 3183 3183 3183 3182 3181 3181 3180 3179 3178 3177 3177 3176 3176 3175 3175 3174 3174 3174 3173 3173 3173 3172 3172 3172 3171 3171 3170 3170 3170 3169 3168 3168 3167 3166 3165 3164 3163 3162 3161 3159 3158 3156 3155 3153 3151 3149 3148 3147 3146 3144 3143 3141 3140 3139 3137 3135 3133 3131 3128 3125 3122 3119 3114 3108 3106 3106 3103 3100 3096 3092 3088 3086 3085 3082 3078 3074 3071 3069 3066 3061 3055 3049 3044 3035 3028
3186 3186 3186 3185 3185 3184 3183 3183 3182 3180 3179 3179 3179 3178 3177 3176 3176 3175 3175 3175 3174 3174 3174 3173 3173 3173 3172 3172 3171 3171 3170 3170 3169 3168 3167 3167 3166 3165 3164 3163 3161 3160 3159 3157 3155 3154 3152 3151 3149 3147 3146 3144 3142 3141 3140 3139 3137 3135 3133 3130 3128 3125 3122 3118 3113 3106 3103 3102 3099 3096 3093 3088 3086 3085 3083 3079 3075 3070 3068 3067 3064 3060 3052 3043 3036 3029 3021
3189 3188 3188 3187 3187 3186 3185 3184 3183 3182 3181 3181 3180 3179 3178 3177 3177 3176 3176 3175 3175 3175 3175 3174 3174 3174 3173 3173 3172 3171 3171 3170 3170 3169 3168 3167 3166 3165 3164 3163 3162 3160 3159 3157 3156 3154 3153 3151 3149 3148 3146 3144 3143 3141 3140 3138 3136 3134 3132 3130 3127 3125 3121 3117 3113 3107 3102 3100 3096 3092 3089 3085 3084 3084 3081 3077 3073 3069 3064 3063 3063 3061 3055 3045 3034 3026 3019
3191 3191 3190 3190 3189 3188 3187 3186 3185 3184 3183 3182 3182 3181 3180 3179 3178 3177 3176 3176 3176 3176 3175 3175 3175 3174 3174 3173 3172 3172 3171 3171 3170 3169 3168 3167 3166 3165 3164 3163 3162 3160 3159 3157 3156 3154 3153 3151 3150 3148 3146 3144 3143 3142 3140 3138 3136 3133 3131 3129 3126 3124 3120 3117 3114 3108 3102 3099 3095 3087 3084 3085 3084 3083 3081 3077 3073 3068 3061 3057 3058 3057 3054 3047 3037 3028 3020
3194 3193 3192 3192 3191 3190 3189 3188 3187 3186 3185 3184 3183 3182 3181 3180 3179 3178 3177 3177 3177 3176 3176 3176 3175 3175 3174 3173 3173 3172 3171 3171 3170 3169 3168 3167 3166 3165 3164 3163 3162 3160 3159 3157 3156 3154 3153 3151 3149 3148 3147 3145 3143 3142 3140 3138 3136 3133 3131 3128 3125 3123 3119 3116 3113 3108 3102 3099 3095 3088 3086 3088 3086 3082 3080 3077 3074 3071 3062 3054 3054 3054 3047 3041 3035 3026 3018
3196 3195 3195 3194 3193 3192 3191 3190 3189 3188 3187 3185 3184 3184 3182 3181 3180 3179 3179 3178 3177 3177 3176 3176 3175 3175 3174 3173 3173 3172 3172 3171 3170 3169 3168 3167 3166 3165 3164 3163 3161 3160 3159 3157 3155 3154 3152 3151 3149 3148 3147 3145 3143 3142 3140 3137 3135 3132 3130 3127 3124 3121 3118 3115 3112 3107 3102 3098 3098 3096 3091 3088 3085 3081 3079 3075 3070 3068 3059 3046 3043 3048 3044 3037 3031 3022 3014
3198 3198 3197 3196 3196 3195 3194 3192 3191 3190 3188 3187 3186 3185 3184 3182 3182 3181 3180 3179 3178 3177 3177 3176 3176 3175 3174 3174 3173 3173 3172 3171 3170 3170 3169 3168 3167 3165 3164 3163 3161 3160 3158 3156 3155 3153 3151 3150 3148 3147 3145 3144 3142 3140 3138 3136 3133 3131 3129 3126 3123 3120 3117 3114 3111 3108 3105 3101 3100 3096 3088 3083 3083 3081 3078 3074 3068 3066 3062 3045 3035 3040 3042 3034 3026 3016 3007
3200 3200 3199 3198 3198 3197 3196 3194 3193 3192 3190 3189 3188 3186 3185 3184 3183 3182 3181 3180 3179 3178 3178 3177 3176 3176 3175 3175 3174 3173 3173 3172 3171 3170 3169 3168 3167 3165 3164 3162 3161 3159 3157 3155 3153 3152 3150 3148 3146 3145 3143 3141 3140 3138 3136 3135 3132 3129 3127 3124 3121 3118 3115 3113 3111 3108 3106 3102 3097 3092 3086 3082 3081 3079 3077 3075 3070 3066 3064 3050 3035 3035 3037 3029 3021 3011 3001
3202 3202 3201 3200 3200 3199 3197 3196 3195 3193 3192 3191 3189 3187 3186 3186 3185 3183 3182 3181 3180 3179 3178 3178 3177 3177 3176 3175 3175 3174 3173 3172 3171 3170 3169 3168 3166 3165 3163 3162 3160 3158 3156 3154 3152 3150 3149 3147 3145 3144 3143 3141 3139 3137 3135 3133 3130 3127 3125 3122 3119 3117 3114 3112 3111 3107 3104 3101 3097 3095 3090 3083 3079 3077 3075 3072 3066 3061 3057 3047 3035 3031 3028 3022 3016 3008 2999
3204 3203 3203 3202 3201 3200 3199 3198 3197 3195 3194 3192 3190 3189 3188 3187 3186 3184 3183 3182 3181 3180 3179 3178 3178 3177 3177 3176 3175 3174 3173 3172 3171 3170 3169 3167 3166 3164 3163 3161 3159 3157 3155 3153 3152 3150 3148 3147 3145 3144 3142 3140 3139 3136 3133 3131 3128 3124 3122 3119 3117 3115 3112 3109 3107 3105 3103 3101 3098 3094 3090 3084 3080 3077 3072 3067 3061 3055 3049 3039 3029 3025 3021 3016 3012 3005 2998
3205 3204 3204 3203 3202 3202 3201 3199 3198 3196 3195 3194 3192 3191 3190 3188 3187 3185 3184 3183 3181 3180 3179 3179 3178 3177 3176 3176 3174 3174 3173 3172 3171 3169 3168 3167 3165 3163 3162 3160 3158 3157 3155 3153 3151 3149 3147 3146 3144 3143 3141 3139 3137 3135 3132 3130 3127 3124 3121 3118 3115 3113 3110 3108 3106 3104 3102 3100 3096 3091 3086 3083 3079 3074 3069 3063 3054 3048 3045 3038 3030 3025 3020 3014 3008 3003 2997
3206 3205 3205 3204 3203 3203 3202 3200 3199 3198 3196 3195 3193 3192 3190 3189 3188 3186 3185 3184 3182 3181 3180 3179 3178 3177 3176 3175 3174 3173 3172 3171 3170 3169 3167 3166 3164 3163 3161 3160 3158 3156 3154 3152 3150 3148 3146 3144 3143 3141 3140 3138 3136 3134 3132 3130 3127 3125 3122 3118 3115 3112 3110 3108 3106 3104 3101 3099 3096 3089 3082 3080 3077 3071 3065 3061 3053 3046 3044 3040 3033 3028 3021 3012 3005 2999 2994
3207 3206 3205 3204 3204 3203 3202 3201 3200 3199 3197 3196 3194 3192 3191 3190 3189 3187 3186 3184 3183 3182 3181 3180 3179 3178 3176 3175 3174 3173 3171 3170 3169 3168 3166 3165 3163 3162 3160 3158 3156 3154 3152 3150 3149 3147 3145 3143 3142 3140 3138 3137 3135 3133 3131 3129 3127 3125 3123 3120 3117 3115 3112 3109 3105 3103 3100 3098 3096 3089 3080 3076 3074 3067 3060 3059 3057 3051 3044 3036 3030 3025 3020 3011 3002 2996 2991
3207 3207 3206 3205 3204 3204 3203 3202 3201 3199 3198 3196 3194 3193 3192 3190 3189 3188 3186 3185 3183 3183 3182 3180 3179 3177 3176 3175 3173 3172 3171 3169 3168 3167 3165 3163 3162 3160 3158 3156 3154 3152 3150 3148 3147 3145 3143 3142 3140 3139 3137 3136 3134 3133 3131 3129 3127 3125 3123 3121 3118 3116 3113 3109 3105 3103 3101 3098 3095 3091 3083 3075 3072 3067 3061 3057 3055 3050 3042 3032 3023 3018 3015 3009 3001 2993 2987
3208 3207 3207 3206 3205 3204 3203 3202 3201 3199 3198 3196 3195 3193 3192 3191 3190 3188 3187 3185 3184 3183 3182 3180 3178 3177 3175 3174 3173 3171 3170 3169 3167 3166 3164 3162 3160 3159 3157 3155 3152 3150 3149 3147 3145 3143 3142 3140 3139 3138 3137 3135 3133 3132 3129 3128 3126 3125 3123 3120 3117 3114 3112 3110 3106 3103 3100 3095 3090 3086 3080 3074 3070 3067 3061 3055 3050 3045 3038 3030 3020 3013 3009 3005 2998 2990 2983
3209 3208 3207 3206 3205 3204 3203 3202 3201 3199 3198 3197 3195 3194 3193 3191 3190 3188 3187 3185 3184 3183 3181 3179 3178 3176 3175 3174 3172 3171 3169 3168 3166 3165 3163 3161 3159 3157 3155 3153 3151 3149 3147 3145 3144 3142 3140 3139 3138 3137 3136 3134 3132 3130 3128 3127 3126 3124 3121 3118 3116 3113 3110 3107 3103 3099 3094 3089 3085 3082 3076 3071 3067 3063 3057 3050 3044 3039 3033 3025 3017 3010 3004 3000 2995 2988 2980
3209 3208 3208 3207 3206 3205 3203 3202 3201 3199 3198 3197 3195 3194 3193 3191 3189 3188 3187 3185 3184 3183 3181 3179 3177 3176 3174 3173 3172 3170 3168 3167 3165 3164 3162 3160 3158 3156 3154 3152 3150 3148 3146 3144 3142 3141 3139 3138 3137 3136 3135 3133 3131 3130 3128 3126 3124 3122 3119 3116 3113 3110 3107 3103 3100 3096 3090 3084 3080 3077 3071 3066 3062 3056 3051 3046 3040 3034 3028 3021 3014 3007 3001 2995 2990 2984 2978
3209 3208 3208 3207 3206 3205 3204 3202 3201 3200 3198 3197 3196 3194 3192 3191 3189 3188 3187 3185 3184 3182 3180 3179 3177 3175 3174 3173 3171 3169 3168 3166 3165 3163 3161 3159 3157 3155 3153 3151 3149 3147 3145 3143 3141 3140 3138 3137 3136 3135 3134 3133 3131 3129 3127 3125 3123 3120 3118 3115 3111 3109 3106 3102 3098 3095 3089 3082 3076 3070 3066 3064 3061 3054 3047 3042 3035 3028 3023 3019 3012 3005 2999 2992 2986 2980 2973
3209 3209 3208 3207 3206 3205 3204 3202 3201 3199 3198 3197 3195 3194 3192 3191 3189 3188 3187 3185 3184 3182 3180 3178 3176 3175 3173 3172 3170 3169 3167 3165 3164 3162 3160 3158 3156 3154 3152 3150 3148 3146 3144 3142 3141 3139 3138 3137 3135 3134 3133 3132 3130 3128 3125 3123 3121 3119 3117 3115 3112 3109 3106 3101 3094 3089 3084 3079 3073 3065 3058 3056 3056 3052 3045 3039 3032 3024 3018 3014 3008 3002 2995 2988 2982 2977 2970
3209 3209 3208 3207 3206 3205 3204 3202 3201 3199 3198 3196 3195 3194 3192 3191 3189 3188 3186 3184 3183 3181 3179 3178 3176 3174 3173 3171 3170 3168 3166 3164 3163 3161 3159 3157 3155 3153 3151 3149 3147 3145 3144 3142 3140 3139 3137 3136 3135 3133 3132 3130 3129 3127 3124 3122 3120 3119 3117 3115 3112 3107 3102 3097 3090 3084 3079 3076 3073 3066 3056 3048 3046 3045 3040 3035 3030 3022 3015 3009 3004 2998 2992 2984 2977 2972 2966
3209 3209 3208 3207 3206 3205 3204 3202 3200 3199 3198 3196 3195 3194 3192 3190 3189 3187 3186 3184 3183 3181 3179 3177 3175 3174 3172 3171 3169 3167 3165 3163 3161 3160 3157 3155 3153 3152 3150 3148 3146 3145 3143 3141 3140 3139 3137 3135 3134 3132 3130 3129 3127 3125 3123 3121 3120 3118 3116 3113 3110 3105 3101 3096 3090 3084 3079 3076 3072 3068 3061 3052 3046 3042 3038 3033 3027 3019 3013 3007 3001 2995 2989 2982 2974 2966 2960
3209 3208 3208 3207 3206 3205 3203 3202 3200 3199 3198 3196 3195 3193 3192 3190 3189 3187 3185 3184 3182 3180 3178 3176 3175 3173 3171 3170 3168 3166 3164 3162 3160 3158 3156 3154 3152 3151 3149 3147 3146 3144 3142 3141 3139 3138 3136 3135 3133 3131 3129 3128 3126 3124 3122 3121 3118 3116 3114 3111 3108 3105 3100 3096 3091 3085 3079 3075 3070 3066 3060 3052 3045 3040 3035 3030 3024 3017 3011 3005 2999 2992 2986 2980 2973 2965 2957
3208 3208 3207 3206 3205 3204 3203 3201 3200 3199 3197 3196 3194 3193 3191 3190 3188 3187 3185 3184 3182 3180 3178 3176 3174 3172 3171 3169 3167 3165 3163 3161 3159 3157 3155 3153 3151 3149 3148 3146 3145 3143 3142 3140 3139 3138 3136 3134 3132 3130 3128 3127 3125 3123 3121 3119 3117 3115 3112 3108 3105 3101 3097 3093 3089 3083 3077 3072 3067 3062 3057 3051 3044 3039 3034 3029 3023 3016 3008 3002 2996 2989 2983 2977 2971 2964 2957
3208 3207 3207 3206 3205 3204 3202 3201 3200 3199 3197 3195 3194 3192 3191 3189 3188 3186 3184 3183 3181 3179 3177 3175 3174 3172 3170 3169 3166 3164 3162 3160 3158 3156 3154 3152 3150 3149 3147 3145 3143 3142 3141 3139 3138 3137 3135 3133 3131 3129 3127 3126 3124 3122 3120 3117 3115 3112 3109 3105 3100 3096 3093 3089 3085 3080 3075 3069 3063 3058 3054 3050 3044 3036 3030 3025 3019 3012 3005 2999 2993 2987 2981 2975 2969 2962 2955
3208 3207 3206 3205 3204 3203 3202 3201 3200 3198 3197 3195 3193 3192 3190 3189 3187 3185 3184 3182 3180 3179 3177 3175 3173 3172 3170 3168 3166 3164 3162 3159 3157 3155 3153 3151 3149 3148 3146 3144 3142 3141 3140 3138 3137 3136 3134 3132 3131 3129 3127 3125 3123 3121 3118 3116 3113 3110 3106 3101 3097 3093 3089 3085 3081 3077 3072 3066 3058 3051 3047 3044 3039 3032 3025 3019 3014 3008 3002 2995 2989 2983 2977 2971 2966 2960 2953
3207 3206 3205 3204 3204 3203 3202 3200 3199 3197 3196 3194 3193 3191 3190 3188 3186 3185 3183 3182 3180 3178 3176 3175 3173 3171 3170 3168 3165 3163 3161 3159 3156 3154 3152 3151 3149 3147 3145 3143 3141 3140 3139 3138 3136 3135 3133 3132 3130 3128 3126 3124 3122 3119 3116 3114 3111 3107 3103 3099 3094 3089 3085 3081 3076 3072 3067 3062 3056 3048 3041 3036 3033 3029 3023 3017 3012 3005 2998 2991 2984 2977 2972 2966 2960 2954 2948
3206 3205 3204 3203 3203 3202 3200 3199 3198 3196 3195 3193 3192 3190 3189 3187 3185 3184 3182 3181 3179 3178 3176 3175 3173 3171 3169 3167 3165 3163 3161 3158 3156 3154 3152 3150 3148 3146 3144 3142 3140 3139 3138 3137 3135 3134 3132 3131 3129 3127 3125 3123 3120 3117 3114 3112 3109 3105 3100 3096 3092 3087 3082 3078 3072 3067 3063 3059 3055 3050 3043 3037 3031 3026 3020 3014 3008 3001 2995 2988 2981 2973 2967 2961 2955 2948 2942
3205 3204 3203 3202 3201 3200 3199 3198 3196 3195 3194 3192 3190 3189 3188 3186 3184 3183 3182 3180 3179 3177 3176 3174 3172 3171 3169 3167 3164 3163 3160 3158 3155 3153 3151 3149 3147 3144 3143 3141 3139 3138 3137 3135 3134 3132 3131 3130 3128 3126 3123 3121 3119 3116 3113 3109 3105 3102 3098 3093 3089 3084 3079 3074 3069 3065 3062 3057 3052 3047 3041 3035 3029 3022 3015 3009 3004 2997 2991 2985 2979 2971 2964 2957 2951 2944 2938
3204 3203 3202 3201 3200 3199 3198 3197 3195 3194 3192 3191 3190 3188 3187 3185 3184 3183 3181 3180 3178 3177 3175 3173 3172 3170 3168 3166 3164 3162 3159 3157 3154 3152 3150 3148 3146 3143 3142 3140 3138 3136 3135 3134 3132 3131 3129 3128 3126 3124 3122 3119 3117 3114 3110 3107 3103 3099 3095 3091 3087 3082 3077 3072 3067 3062 3058 3054 3049 3043 3037 3031 3025 3019 3012 3007 3001 2995 2988 2981 2975 2968 2961 2953 2946 2940 2934
3203 3202 3201 3200 3199 3198 3197 3195 3194 3193 3191 3190 3189 3187 3186 3185 3184 3182 3181 3179 3178 3176 3174 3173 3171 3169 3167 3164 3162 3160 3158 3156 3153 3151 3149 3147 3144 3142 3140 3139 3137 3135 3133 3132 3130 3129 3128 3126 3124 3122 3120 3117 3114 3111 3108 3105 3100 3096 3093 3089 3085 3081 3076 3071 3065 3059 3055 3050 3045 3039 3033 3028 3022 3016 3009 3002 2997 2991 2984 2977 2971 2965 2957 2950 2943 2937 2931
3202 3201 3200 3199 3198 3197 3196 3194 3193 3191 3190 3189 3187 3186 3185 3184 3183 3181 3180 3178 3177 3175 3174 3172 3170 3167 3165 3163 3161 3159 3157 3154 3152 3149 3147 3145 3143 3141 3139 3137 3135 3133 3131 3130 3128 3127 3126 3124 3122 3119 3117 3115 3112 3109 3106 3102 3099 3095 3091 3087 3082 3078 3073 3068 3062 3056 3049 3044 3039 3033 3028 3023 3018 3012 3006 2999 2993 2988 2982 2975 2970 2964 2957 2950 2942 2935 2929
3201 3200 3199 3198 3197 3196 3194 3193 3192 3190 3189 3187 3186 3185 3184 3183 3182 3180 3179 3177 3176 3174 3173 3171 3168 3166 3164 3162 3159 3157 3155 3152 3150 3148 3146 3144 3141 3139 3137 3135 3133 3131 3129 3127 3126 3125 3123 3121 3119 3117 3114 3112 3109 3106 3103 3101 3097 3093 3089 3085 3080 3075 3070 3066 3060 3054 3048 3042 3037 3032 3026 3020 3014 3009 3003 2996 2991 2986 2980 2974 2968 2963 2956 2949 2941 2934 2926
3200 3199 3198 3197 3196 3194 3193 3192 3190 3189 3187 3186 3185 3184 3183 3182 3181 3179 3178 3176 3174 3173 3171 3169 3167 3164 3162 3160 3158 3156 3153 3150 3148 3146 3144 3142 3140 3138 3136 3134 3132 3129 3127 3125 3124 3123 3121 3119 3117 3114 3112 3109 3107 3104 3101 3098 3095 3091 3087 3082 3077 3072 3067 3062 3057 3052 3047 3043 3038 3033 3027 3022 3015 3009 3002 2995 2989 2983 2977 2971 2965 2960 2953 2947 2940 2932 2925
3199 3198 3197 3196 3194 3193 3192 3190 3189 3188 3186 3185 3184 3183 3182 3181 3180 3178 3176 3175 3173 3171 3169 3167 3165 3163 3160 3158 3156 3154 3151 3149 3147 3144 3142 3140 3138 3136 3134 3132 3130 3127 3125 3124 3122 3121 3119 3116 3114 3112 3110 3107 3104 3102 3099 3096 3093 3089 3085 3079 3074 3070 3065 3060 3055 3050 3045 3040 3036 3031 3025 3020 3015 3009 3002 2995 2988 2982 2976 2969 2963 2957 2952 2945 2938 2931 2924
3197 3196 3195 3194 3193 3192 3190 3189 3188 3186 3185 3184 3183 3183 3181 3180 3179 3177 3176 3174 3172 3170 3168 3165 3163 3161 3159 3157 3154 3152 3149 3147 3145 3142 3140 3138 3136 3134 3132 3130 3128 3126 3124 3123 3121 3119 3117 3115 3113 3111 3108 3106 3103 3099 3096 3093 3090 3086 3082 3077 3072 3067 3062 3057 3053 3048 3043 3038 3033 3028 3022 3017 3012 3006 3000 2993 2987 2981 2975 2968 2961 2955 2950 2944 2937 2930 2923
3196 3195 3194 3193 3192 3190 3189 3188 3187 3186 3185 3184 3183 3182 3181 3179 3178 3177 3175 3173 3171 3169 3166 3164 3162 3160 3158 3155 3152 3150 3148 3145 3143 3141 3138 3136 3134 3132 3130 3128 3127 3125 3123 3121 3119 3117 3115 3113 3111 3109 3106 3104 3101 3097 3094 3090 3086 3083 3079 3075 3070 3065 3060 3055 3050 3046 3041 3036 3030 3024 3019 3013 3008 3004 2999 2993 2986 2980 2975 2968 2961 2954 2948 2943 2936 2929 2921
3195 3194 3193 3192 3190 3189 3188 3187 3186 3185 3184 3183 3182 3181 3180 3179 3177 3176 3174 3172 3170 3168 3166 3163 3161 3159 3156 3154 3151 3149 3146 3144 3141 3139 3137 3135 3133 3131 3129 3127 3125 3123 3121 3119 3117 3115 3114 3112 3109 3107 3104 3101 3098 3095 3091 3088 3084 3080 3076 3072 3067 3063 3058 3053 3048 3043 3038 3034 3028 3023 3017 3012 3006 3001 2997 2992 2985 2978 2971 2966 2959 2953 2946 2940 2934 2928 2920
3194 3193 3192 3191 3189 3188 3187 3186 3185 3184 3183 3182 3181 3180 3179 3177 3176 3175 3173 3171 3169 3167 3164 3162 3160 3157 3155 3152 3150 3147 3145 3142 3140 3138 3136 3134 3132 3130 3128 3126 3123 3121 3119 3117 3115 3114 3112 3110 3107 3105 3101 3099 3096 3092 3089 3085 3081 3077 3073 3069 3065 3060 3055 3050 3045 3040 3035 3030 3025 3019 3014 3008 3003 2997 2992 2988 2983 2977 2970 2963 2956 2949 2942 2936 2930 2924 2918
3193 3192 3191 3190 3188 3187 3187 3186 3185 3183 3183 3181 3180 3179 3178 3176 3175 3173 3172 3170 3167 3165 3163 3161 3158 3156 3153 3151 3148 3146 3143 3141 3138 3136 3134 3132 3130 3128 3126 3124 3122 3119 3117 3115 3114 3112 3110 3107 3105 3102 3099 3096 3093 3090 3086 3082 3079 3075 3071 3066 3062 3057 3052 3047 3042 3037 3031 3027 3022 3017 3011 3005 2999 2994 2989 2984 2980 2975 2968 2961 2954 2945 2938 2932 2926 2920 2914
3192 3191 3190 3189 3188 3187 3186 3185 3184 3183 3182 3180 3179 3178 3177 3175 3174 3172 3170 3168 3166 3164 3161 3159 3157 3154 3151 3149 3147 3144 3142 3139 3137 3135 3133 3131 3128 3126 3124 3122 3120 3118 3116 3114 3112 3110 3108 3105 3102 3099 3096 3093 3090 3087 3083 3079 3076 3072 3068 3064 3059 3054 3049 3045 3040 3034 3029 3024 3019 3014 3008 3003 2997 2991 2986 2981 2977 2972 2966 2959 2952 2944 2936 2930 2924 2918 2913
3190 3190 3189 3188 3187 3186 3185 3184 3183 3181 3180 3179 3178 3176 3175 3174 3172 3171 3169 3167 3164 3162 3159 3157 3155 3152 3150 3147 3145 3143 3141 3138 3135 3133 3132 3130 3127 3124 3122 3120 3119 3117 3115 3113 3110 3108 3105 3102 3099 3097 3093 3090 3087 3084 3080 3077 3073 3069 3065 3060 3056 3051 3047 3042 3037 3032 3026 3021 3016 3011 3006 3000 2995 2989 2984 2979 2974 2969 2963 2956 2949 2942 2934 2927 2922 2917 2911
3189 3188 3187 3186 3185 3184 3183 3182 3181 3180 3179 3178 3176 3175 3174 3172 3171 3169 3167 3165 3163 3160 3158 3155 3153 3151 3148 3146 3143 3141 3139 3137 3134 3132 3130 3129 3126 3124 3121 3119 3117 3116 3114 3111 3109 3106 3102 3099 3097 3094 3091 3087 3084 3081 3077 3074 3070 3066 3061 3057 3053 3048 3044 3039 3034 3029 3024 3019 3013 3008 3003 2998 2992 2987 2982 2976 2971 2966 2961 2953 2945 2938 2931 2925 2919 2914 2909
3187 3187 3186 3185 3184 3183 3182 3181 3180 3178 3177 3176 3175 3173 3172 3171 3169 3168 3166 3163 3161 3159 3156 3154 3151 3149 3146 3144 3141 3139 3137 3135 3133 3131 3129 3127 3125 3122 3120 3118 3116 3114 3112 3109 3106 3103 3100 3096 3093 3090 3087 3084 3081 3078 3075 3071 3067 3062 3058 3054 3050 3045 3041 3036 3031 3026 3021 3016 3011 3005 3000 2995 2990 2985 2979 2974 2969 2964 2959 2952 2943 2936 2930 2924 2918 2912 2907
3186 3185 3184 3183 3182 3181 3180 3179 3178 3177 3176 3175 3173 3172 3170 3169 3168 3166 3164 3162 3159 3157 3155 3152 3150 3147 3144 3142 3140 3137 3135 3133 3131 3129 3127 3125 3123 3121 3118 3116 3114 3112 3109 3107 3104 3101 3097 3094 3090 3087 3084 3081 3077 3074 3071 3068 3064 3059 3055 3050 3046 3042 3038 3033 3028 3024 3019 3014 3009 3003 2998 2993 2988 2983 2978 2973 2968 2962 2956 2950 2943 2936 2929 2923 2917 2911 2905
3184 3183 3182 3181 3180 3179 3178 3178 3177 3176 3174 3173 3171 3170 3168 3167 3166 3164 3162 3160 3158 3155 3153 3151 3149 3146 3144 3141 3138 3136 3133 3131 3128 3126 3125 3123 3121 3118 3116 3114 3112 3109 3106 3104 3102 3099 3095 3091 3087 3084 3081 3077 3074 3071 3067 3064 3060 3056 3052 3047 3043 3038 3034 3029 3025 3021 3016 3011 3006 3001 2996 2991 2986 2982 2977 2971 2965 2958 2951 2945 2940 2935 2928 2921 2916 2910 2905